Volver al catálogo

COSMOS 2289

GLONASS

ActivoNavegaciónMEO
NORAD 23204·PAYLOAD·🇷🇺 Russia

Lanzado Aug 11, 1994 desde Baikonur Cosmodrome

Loading…

Próximos Pases (próximas 24 horas)

TLE

ActualizadoSource: Space-Track

Época: Sep 13, 2026, 23:35 UTC

1 23204U 94050B   26256.98293341  .00000021  00000-0  00000-0 0  9992
2 23204  65.4082 199.2017 0009050 322.0379  37.8871  2.13103347249561

Sigue COSMOS 2289 en tiempo real con AllMySat

Download on the App Store